Location: Artiguedieu
(43.5000°N, 0.5454°E)
Time: 13:06:58
(UTC+00:00)

ATLAS 3B R/B - Pass Details

Date: 06 December 2020
Orbit: 1013 x 1182 km, 63.8° (Epoch: 08 January)

Event Time Altitude Azimuth Distance (km) Brightness Sun altitude
Exits shadow 05:23:49 24° 247° (WSW) 2,152 3.8 -19.7°
Drops below altitude 10° 05:29:01 10° 201° (SSW) 3,034 5.0 -18.8°
Sets 05:32:20 0° 188° (S) 4,012 5.8 -18.2°
